Regional Weather Roundup
Issued by NWS Jackson, KY

Home | Current Version | Previous Version | Graphics & Text | Print | Product List | Glossary On
Versions: 1 2 3 4 5 6 7 8 9 10 11 12 13 14 15 16 17 18 19 20 21 22 23 24 25 26 27 28 29 30 31 32 33 34 35 36 37 38 39 40 41 42 43 44 45 46 47 48 49 50
000
ASUS43 KJKL 240811
RWRJKL

EAST KENTUCKY HOURLY WEATHER ROUNDUP
NATIONAL WEATHER SERVICE JACKSON KY
400 AM EDT THU JUL 24 2014

NOTE: "FAIR" INDICATES FEW OR NO CLOUDS BELOW 12,000 FEET WITH
NO SIGNIFICANT WEATHER AND/OR OBSTRUCTIONS TO VISIBILITY.

* THESE REPORTS ARE NOT UNDER NWS QUALITY CONTROL AND MAY NOT
  REPORT WEATHER SUCH AS PRECIPITATION AND FOG.

KYZ079-080-083-085-087-088-110-112-115-119-120-240900
...EASTERN KENTUCKY...

CITY           SKY/WX    TMP DP  RH WIND       PRES   REMARKS
JACKSON        FOG       68  67  96 CALM      29.96F VSB 1/4
LONDON         MOCLDY    70  67  90 CALM      29.97F FOG
SOMERSET*      CLOUDY    68  68 100 CALM      29.97S FOG
MONTICELLO*    FOG       70  70 100 CALM      29.97F VSB 3/4
WILLIAMSBURG*  CLOUDY    66  66 100 CALM      29.97F
MIDDLESBORO*   CLOUDY    69  69 100 CALM      29.97S
HARLAN APT*    CLOUDY    66  66 100 MISG      29.98F VSB<1/4
HAZARD APT*    PTSUNNY   68  68 100 CALM      29.96F FOG
BLACK MTN*       N/A     63  63 100 S3          N/A
PIKEVILLE APT* FOG       66  66 100 CALM      29.96F VSB 1/4
BIG SANDY*     FOG       68  68 100 CALM      29.95F VSB 1/4
MOREHEAD APT*  CLOUDY    70  70 100 CALM      29.97F FOG
$$

KYZ035-036-041-042-044-050-067-078-099-240900
...CENTRAL KENTUCKY...

CITY           SKY/WX    TMP DP  RH WIND       PRES   REMARKS
MT STERLING*   CLOUDY    68  68 100 CALM      29.96F FOG
FLEMING/MASON* DRIZZLE   64  63  94 N9G20     29.98S
DANVILLE*      CLOUDY    68  68 100 CALM      29.96F
RICHMOND*      MOCLDY    68  66  94 CALM      29.95F
LEXINGTON      CLOUDY    71  68  90 N3        29.95F
FRANKFORT      CLOUDY    70  67  90 N8        29.95S
$$

KYZ091>093-OHZ055-061-077-WVZ005-015-034-035-042-240900
...SOUTHERN OHIO/WEST VIRGINIA...

CITY           SKY/WX    TMP DP  RH WIND       PRES   REMARKS
COVINGTON      MOCLDY    66  59  78 NE13      29.99F
COLUMBUS       MOCLDY    61  55  82 N6        30.02S
DAYTON         PTCLDY    58  56  93 NE5       30.05S
WILMINGTON     CLOUDY    62  55  77 NE8       30.02S
HUNTINGTON     CLOUDY    71  68  90 N6        29.93F
CHARLESTON     CLOUDY    70  70 100 CALM      29.93F FOG
PINEVILLE*     CLOUDY    71  71 100 MISG      30.01F FOG
BECKLEY        CLOUDY    67  65  93 NW3       29.99F
BLUEFIELD      LGT RAIN  69  65  86 CALM      30.02F
$$

VAZ002-007-008-TNZ017-027-036-066-071-240900
...SOUTHWEST VIRGINIA/EAST TENNESSEE...

CITY           SKY/WX    TMP DP  RH WIND       PRES   REMARKS
WISE*          MOCLDY    64  64 100 CALM      30.03S FOG
JONESVILLE*    FOG       68  68 100 CALM      29.99F VSB 1/2
ABINGDON*      MOCLDY    70  69  99 CALM      30.00F FOG
BRISTOL        CLOUDY    70  67  90 CALM      29.97F
KNOXVILLE      CLOUDY    73  69  87 SW3       29.94F
OAK RIDGE      CLOUDY    71  70  96 CALM      29.97F
CROSSVILLE     MOCLDY    70  67  90 W5        30.01S
NASHVILLE      PTCLDY    74  69  85 NW8       29.96F
$$

...KEY TO REMARKS...
VSB - VISIBILITY IN MILES
WCI - WIND CHILL INDEX
HX  - HEAT INDEX

$$


USA.gov is the U.S. government's official web portal to all federal, state and local government web resources and services.